{"data":{"norad_id":61183,"epoch":"2026-05-22T06:45:14.261184Z","epoch_age_seconds":313504,"freshness":"STALE","line1":"1 61183U 24167B   26142.28141506 -.00000010  00000+0  00000+0 0  9991","line2":"2 61183  55.1903 222.0316 0002380 215.3262 145.6898  1.70474365 10418","mean_motion":1.70474365,"eccentricity":0.000238,"inclination_deg":55.1903,"raan_deg":222.0316,"arg_perigee_deg":215.3262,"mean_anomaly_deg":145.6898,"bstar":0,"rev_number":1041,"period_min":844.7017825818,"perigee_km":23215.095940243,"apogee_km":23229.185672479,"semimajor_km":29600.277806361,"source":"CELESTRAK","updated_at":"2026-05-25T13:38:24.062652Z"}}